This demonstration page uses our WeatherBlox Daily Observations layout. Learn more.

Left ArrowRight Arrow

39.95238, -75.16362

Hourly Observations for February 17, 2017

Temp ( °F °C ) Dew Point ( °F °C ) Humidity (%) Winds ( mph kmh ) Pressure ( in mb ) Visibility ( mi km ) Precip ( " mm )
12:54 am 00:54 Clear 30 -1.1 15 -9.4 54 54 VRB 7 11 29.90 1013 10 16 0.00 0.00
1:54 am 01:54 Clear 26 -3.3 15 -9.4 63 63 WSW 8 13 29.92 1013 10 16 0.00 0.00
2:54 am 02:54 Clear 28 -2.2 15 -9.4 58 58 WNW 9 15 29.91 1013 10 16 0.00 0.00
3:54 am 03:54 Clear 29 -1.7 14 -10 54 54 WNW 9 15 29.91 1013 10 16 0.00 0.00
4:54 am 04:54 Clear 28 -2.2 13 -10.6 53 53 WNW 12 19 29.92 1013 10 16 0.00 0.00
5:54 am 05:54 Clear 28 -2.2 14 -10 56 56 WNW 9 15 29.93 1014 10 16 0.00 0.00
6:54 am 06:54 Mostly Cloudy 27 -2.8 14 -10 58 58 W 10 17 29.94 1014 10 16 0.00 0.00
7:54 am 07:54 Mostly Cloudy 28 -2.2 14 -10 56 56 WNW 8 13 29.94 1014 10 16 0.00 0.00
8:54 am 08:54 Mostly Cloudy 29 -1.7 14 -10 54 54 WNW 7 11 29.95 1014 10 16 0.00 0.00
9:54 am 09:54 Mostly Cloudy 32 0 15 -9.4 50 50 WNW 9 15 29.95 1014 10 16 0.00 0.00
10:54 am 10:54 Mostly Cloudy 34 1.1 16 -8.9 48 48 NW 5 7 29.94 1014 10 16 0.00 0.00
11:54 am 11:54 Partly Cloudy 37 2.8 16 -8.9 42 42 W 7 11 29.92 1013 10 16 0.00 0.00
12:54 pm 12:54 Mostly Sunny 39 3.9 17 -8.3 41 41 WSW 10 17 29.90 1012 10 16 0.00 0.00
1:54 pm 13:54 Partly Cloudy 41 5 16 -8.9 36 36 WNW 8 13 29.88 1012 10 16 0.00 0.00
2:54 pm 14:54 Partly Cloudy 43 6.1 16 -8.9 34 34 undefined N/A 29.86 1011 10 16 0.00 0.00
3:00 pm 15:00 Partly Cloudy 43 6.1 15 -9.4 32 32 VRB 3 6 29.88 1012 10 16 0.00 0.00
3:54 pm 15:54 Mostly Cloudy 44 6.7 16 -8.9 32 32 NW 6 9 29.87 1011 10 16 0.00 0.00
4:54 pm 16:54 Mostly Cloudy 44 6.7 16 -8.9 32 32 W 12 19 29.87 1012 10 16 0.00 0.00
5:54 pm 17:54 Mostly Cloudy 42 5.6 19 -7.2 40 40 WSW 12 19 29.90 1012 10 16 0.00 0.00
6:54 pm 18:54 Mostly Cloudy 42 5.6 17 -8.3 36 36 W 9 15 29.91 1013 10 16 0.00 0.00
7:54 pm 19:54 Partly Cloudy 42 5.6 17 -8.3 36 36 W 8 13 29.92 1013 10 16 0.00 0.00
8:54 pm 20:54 Partly Cloudy 41 5 16 -8.9 36 36 WNW 7 11 29.94 1014 10 16 0.00 0.00
9:54 pm 21:54 Partly Cloudy 37 2.8 19 -7.2 48 48 SSW 5 7 29.94 1014 10 16 0.00 0.00
10:54 pm 22:54 Partly Cloudy 34 1.1 22 -5.6 61 61 Calm 29.93 1013 10 16 0.00 0.00
11:54 pm 23:54 Mostly Clear 32 0 23 -5 69 69 SSW 3 6 29.92 1013 10 16 0.00 0.00

Powered by AerisWeather